www.pogodaiklimat.ru

АРХИВ ПОГОДЫ в Джексоне

Время (UTC), дата Ветер
(напр.,м/с)
 
Видим.   Явления Облачность Т
(С)
Тd
(С)
f
(%)
Тe
(С)
Тes
(С)
Комфортность

P
(гПа)

Po
(гПа)
Тmin
(С)
Tmax
(С)
R
(мм)
SD
(см)
03:54 22.02 СВ  5 км  дымка  10/10 120 м  +9.4  +8.3  93  +6  +6    1017.6  1004.9         
04:54 22.02 СВ  6 км  дымка  10/10 120 м  +9.4  +8.9  97  +7  +7    1017.5  1004.9  +9.4  +11.1     
05:47 22.02 СВ  4 км  дымка  10/10 90 м  +10.0  +8.9  93  +8  +8      1004.5         
05:54 22.02 СВ  4 км  дымка  10/10 90 м  +10.0  +8.9  93  +8  +8    1017.4  1004.9         
06:31 22.02 нст  3 км  дымка  10/10 60 м  +10.0  +8.9  93  +9  +9      1004.5         
06:54 22.02 В  3 км  дымка  10/10 60 м  +10.0  +9.4  96  +8  +8    1016.9  1004.2         
07:41 22.02   6 км  дымка  10/10 60 м  +10.0  +9.4  96  +9  +9      1004.2         
07:54 22.02 нст  6 км  дымка  10/10 60 м  +10.0  +9.4  96  +9  +9    1016.8  1004.2         
08:13 22.02 СВ  4 км  дымка  10/10 60 м  +10.6  +9.4  92  +10  +10      1004.2         
08:37 22.02 СВ  2 км  дымка  10/10 60 м  +10.6  +9.4  92  +10  +10      1004.2         
08:54 22.02 В  2 км  дымка  10/10 60 м  +10.6  +10.0  96  +9  +9    1016.7  1004.2         
09:54 22.02 ЮВ  2 км  дымка  10/10 60 м  +10.6  +10.0  96  +9  +9    1016.9  1004.2         
10:50 22.02   1 км  дымка  ?/?  +11.0  +11.0  100  +10  +10      1004.9         
10:54 22.02   2 км  дымка  ?/?  +11.1  +10.6  97  +10  +10    1017.4  1004.9  +9.4  +11.1     
11:23 22.02   4 км  дымка  10/10 60 м  +11.1  +10.6  97  +10  +10      1004.9         
11:30 22.02   5 км  дымка  10/10 60 м  +11.1  +10.6  97  +10  +10      1005.2         
11:39 22.02   3 км  дымка  10/10 60 м  +11.7  +10.6  93  +11  +11      1005.2         
11:51 22.02   2 км  дымка  10/10 90 м  +12.0  +11.0  94  +11  +11      1005.6         
11:54 22.02   2 км  дымка  10/10 90 м  +11.7  +11.1  96  +11  +11    1018.0  1005.6         
12:54 22.02   2 км  дымка  10/10 60 м  +12.2  +11.7  97  +12  +12    1018.4  1005.9         
13:54 22.02   2 км  дымка  10/10 60 м  +14.4  +13.3  93  +14  +14    1018.9  1006.6         
14:54 22.02 В  2 км  дымка  10/10 60 м  +16.1  +15.0  93  +16  +16    1019.1  1006.6         
15:09 22.02   3 км  дымка  10/10 60 м  +16.7  +15.6  93  +17  +17      1006.6         
15:54 22.02 С  3 км  дымка  10/10 120 м  +17.2  +15.0  87  +17  +17    1019.2  1006.6         
16:01 22.02 С  16 км    10/10 120 м  +16.7  +14.4  86  +16  +16      1006.6         
16:18 22.02 С  16 км    10/10 150 м  +17.2  +14.4  84  +17  +17      1006.6         
16:54 22.02 С  16 км    10/10 210 м  +17.8  +14.4  80  +17  +17    1018.7  1006.2  +11.1  +17.8     
17:17 22.02 С  16 км    10/10 240 м  +18.3  +15.0  81  +19  +19      1005.9         
17:54 22.02 С  16 км    8/8 510 м  +20.0  +15.6  76  +22  +24  комфорт  1017.2  1004.9         
18:54 22.02 С  16 км    8/5 900 м
[верхняя] 
+21.1  +16.1  73  +24  +28  комфорт  1016.1  1003.5         
19:54 22.02 С  16 км    8/5 900 м
[средняя верхняя] 
+21.1  +16.1  73  +24  +26  комфорт  1015.5  1003.2         
20:54 22.02 С  16 км    8/2 900 м
[средняя верхняя] 
+21.1  +16.7  76  +25  +26  комфорт  1015.1  1002.9         
21:54 22.02 С  16 км  слабый дождь  8/2 1410 м
[средняя] 
+18.3  +15.6  84  +18  +19    1015.3  1002.9         
22:54 22.02 нст  16 км    8/0 3300 м
[средняя] 
+18.9  +16.1  84  +21  +21  комфорт  1015.5  1002.9  +17.8  +22.8     
23:54 22.02 СВ  16 км    10/2 840 м
[средняя] 
+17.8  +16.1  90  +18  +18    1015.4  1002.9         
00:51 23.02 В  16 км  слабый дождь  10/8 570 м
[средняя] 
+18.0  +16.0  88  +19  +19      1003.5         
00:54 23.02 В  16 км    10/8 510 м
[средняя] 
+17.2  +16.1  93  +18  +18    1015.8  1003.2         
01:01 23.02 В  14 км    8/8 510 м  +17.2  +16.1  93  +18  +18      1003.2         
01:32 23.02 С  13 км    8/8 240 м  +17.2  +16.1  93  +18  +18      1003.5         
01:50 23.02 СВ  10 км  дымка  5/5 150 м  +17.0  +16.0  94  +18  +18      1003.2         
01:54 23.02   6 км  дымка  8/8 150 м  +16.7  +15.6  93  +17  +17    1015.8  1003.2      1.0   
01:59 23.02 С  5 км  слабый дождь, дымка  8/8 150 м  +16.1  +15.6  97  +16  +16      1003.2         
02:10 23.02 СВ  6 км  дымка  8/8 120 м  +16.7  +15.6  93  +17  +17      1003.2         
02:54 23.02   10 км  дымка  10/10 510 м  +17.8  +16.7  93  +18  +18    1015.2  1002.9         
03:19 23.02 ЮВ  16 км    10/10 360 м  +21.1  +19.4  90  +26  +26  душно    1002.2         
03:54 23.02 Ю  16 км    10/10 360 м  +21.1  +20.0  93  +26  +26  душно  1014.1  1001.9         
04:54 23.02 Ю  14 км    10/10 330 м  +21.7  +20.0  90  +27  +27  душно  1014.1  1001.9  +16.1  +21.7  1.0   
05:03 23.02 Ю  14 км  слабый дождь  10/10 420 м  +21.7  +20.0  90  +27  +27  душно    1001.5         

 

Местоположение метеостанции Jackson International Airport: широта 32.3197 долгота -90.0775 высота над уровнем моря 105 м.

В архиве по умолчанию представлена погода в Джексоне за последние 1-2 суток. Обновление информации о фактической погоде в базе происходит ежечасно! Архивные данные за месяц целиком и за предыдущие месяцы Вы можете получить, выбрав интересующий диапазон дат из раскрывающегося списка и нажав кнопку "Ввод!".

Внимание! Архив погоды МЕТАР в базе сайта в настоящее время начинается c 1 января 2011 г. Нет смысла пытаться выбрать более раннюю дату.

Внимание! Время в таблицах - всемирное. Для получения местного времени необходимо прибавить поправку, которая в Джексоне равна -6 ч.

Ветер - указаны скорость ветра в м/с и направление, откуда дует ветер: С - северный, СВ - северо-восточный, В - восточный, ЮВ - юго-восточный, Ю - южный, ЮЗ - юго-западный, З - западный, СЗ - северо-западный.
Видимость - горизонтальная дальность видимости в метрах или километрах. При видимости от 1 до 10 км при отсутствии осадков обычно наблюдается дымка, при ухудшении видимости до 1 км и менее - туман. В сухую погоду видимость может ухудшаться дымом, пылью или мглою.
Атмосферные явления - указаны явления, наблюдавшиеся в указанный момент времени.
Облачность - указаны через наклонную черту верхняя и нижняя облачность в баллах и высота нижней границы облаков в метрах. Внимание: облачность, как и прочие метеорологические величины в США измеряются автоматическими метеостанциями. Указанные значения в баллах носят условный характер и показывают процент времени, в течение которого, в среднем, лазерный луч высотомера отражался от облаков обратно.
T - Температура воздуха - температура, измеренная на высоте 2 м над землей.
Td - Температура точки росы - температура, при понижении до которой содержащийся в воздухе водяной пар достигнет насыщения.
f - Относительная влажность воздуха - влажноcть воздуха, измеренная на высоте 2 м над землей.
Te - Эффективная температура - температура, которую ощущает одетый по сезону человек в тени. Характеристика душности погоды. При расчете учитывается влияние влажности воздуха и скорости ветра на теплоощущения человека.
Tes - Эффективная температура на солнце - температура, которую ощущает человек, с поправкой на солнечный нагрев. Характеристика знойности погоды. Зависит от высоты солнца над горизонтом, облачности и скорости ветра. Ночью, в пасмурную погоду, а также при ветре 12 м/с и более поправка равна нулю.
P - Атмосферное давление - приведенное к уровню моря атмосферное давление.
Po - Атмосферное давление - измеренное на уровне метеостанции атмосферное давление.
Tmin - Минимальная температура - минимум температуры воздуха на высоте 2 м над землей.
Tmax - Максимальная температура - максимум температуры воздуха на высоте 2 м над землей.
R - Количество осадков - Количество выпавших осадков за 3 или 6 часов, мм.
SD - Снежный покров - Высота снежного покрова, см.